Regional Weather Roundup
Issued by NWS

Home | Current Version | Previous Version | Graphics & Text | Print | Product List | Glossary On
Versions: 1 2 3 4 5 6 7 8 9 10 11 12 13 14 15 16 17 18 19 20 21 22 23 24 25 26 27 28
000
ASUS45 KBOI 251910
RWRID

IDAHO REGIONAL WEATHER ROUNDUP
NATIONAL WEATHER SERVICE BOISE ID
100 PM MDT WED APR 25 2018

NOTE: "FAIR" INDICATES FEW OR NO CLOUDS BELOW 12000 FEET
WITH NO SIGNIFICANT WEATHER AND/OR OBSTRUCTIONS TO VISIBILITY

IDZ012-014-252000-
SOUTHWEST IDAHO


CITY           SKY/WX    TMP DP  RH WIND       PRES   REMARKS
BOISE          SUNNY     68  36  30 NE5       30.18F
CALDWELL       SUNNY     69  37  30 E8        30.17F
MOUNTAIN HOME  SUNNY     69  32  25 E6        30.17F
$$

IDZ016-017-252000-
SOUTHCENTRAL IDAHO


CITY           SKY/WX    TMP DP  RH WIND       PRES   REMARKS
BURLEY         SUNNY     67  29  24 NE7       30.17F
JEROME         SUNNY     66  24  20 VRB3      30.19F
TWIN FALLS     SUNNY     66  29  24 VRB7      30.19S
$$

IDZ019>023-252000-
SOUTHEAST IDAHO


CITY           SKY/WX    TMP DP  RH WIND       PRES   REMARKS
IDAHO FALLS    MOSUNNY   60  25  26 SW9G20    30.22F
POCATELLO      MOSUNNY   64  32  30 N9        30.21F
REXBURG        PTSUNNY   58  26  29 SW14      30.21F
$$

IDZ006-010-011-018-031-032-252000-
CENTRAL IDAHO MOUNTAINS


CITY           SKY/WX    TMP DP  RH WIND       PRES   REMARKS
MCCALL         SUNNY     60  29  30 VRB3      30.20F
HAILEY         MOSUNNY   61  27  27 CALM      30.22F
STANLEY          N/A     57  25  29 VRB6      30.26S
SALMON         MOSUNNY   57  28  33 CALM      30.18F
CHALLIS        SUNNY     64  21  19 SE6       30.18F
$$

IDZ002-004-006-007-026-252000-
NORTHERN IDAHO


CITY           SKY/WX    TMP DP  RH WIND       PRES   REMARKS
LEWISTON       SUNNY     69  43  38 CALM      30.11F
LOWELL           N/A     69  36  29 CALM      30.10F
COEUR D`ALENE  SUNNY     67  34  29 W8        30.12
MULLAN PASS    SUNNY     52  28  39 NW8       30.16S
$$




USA.gov is the U.S. government's official web portal to all federal, state and local government web resources and services.